Donatas Kazlauskas

Chefscout - Zalgiris
22 Feb 2028
Dienstag
Verarbeitung

Persönlichkeit

Anpassungsfähigkeit (18) Ehrgeiz (2) Kontroverse (3) Loyalität (15) Druck (18) Professionalität (9) Fairness (20) Temperament (4)

Profil

Trainerstil Demokratisch
Lizenz Kontinentale Pro
Entschlossenheit 10
Menschenführung 9
Motivation 8
Disziplin 9
Arbeitszufriedenheit
100%
Ermüdung
0%
Rolle Chefscout
Gehalt 56.8K p/W
Vertrag 14.03.2029

Leistung

Verhalten Gut
Trainingseffektivität
29%
Spielerentwicklung
35%
Verletzungsprävention
30%
Taktische Umsetzung
35%

Letzte Ereignisse

Nahm an einer Scouting-Besprechung teil jetzt
Empfahl ein Transferziel jetzt
Nahm an einer Scouting-Besprechung teil 7T her
Empfahl ein Transferziel 7T her
Empfahl ein Transferziel 7T her
Nahm an einer Scouting-Besprechung teil 7T her
Nahm an einer Scouting-Besprechung teil 7T her
Nahm an einer Scouting-Besprechung teil 14T her

Aktuell beobachtet

243
Spieler Verein Status Fähigkeit Vertrauen Beobachtet Zuletzt beobachtet Letzte Stimme
Jacob Chapman Huddersfield Town Aktiv 124 / 120 40% 3 07.02.2028 -
Wladimiro Falcone Lecce Aktiv 134 / 150 40% 1 07.02.2028 -
Luke Southwood Bristol Rovers Aktiv 122 / 106 40% 2 06.02.2028 -
Max O'Leary West Bromwich Albion Aktiv 125 / 118 40% 3 06.02.2028 -
Evgeny Latyshonok Nizhniy Novgorod Aktiv 139 / 128 40% 1 05.02.2028 -
Jordan Amissah Burton Albion Aktiv 129 / 101 40% 1 05.02.2028 -
Daniele Sommariva Crawley Town Aktiv 106 / 113 40% 1 04.02.2028 -
Michele Cerofolini Bari Aktiv 138 / 138 40% 1 04.02.2028 -
Gaëtan Poussin Red Star Aktiv 119 / 140 40% 1 03.02.2028 -
Gabriel Słonina Oldham Athletic Aktiv 126 / 134 40% 1 03.02.2028 -
Alexandr Maximenko Rubin Aktiv 135 / 130 40% 3 02.02.2028 -
Joe Lumley Sheffield Wednesday Aktiv 112 / 130 40% 1 02.02.2028 -
Emilio Di Fulvio Colegiales Aktiv 121 / 104 40% 1 01.02.2028 -
Christian Walton Ipswich Town Aktiv 140 / 145 40% 1 01.02.2028 -
Deividas Mikelionis Kauno Zalgiris Aktiv 105 / 90 51% 1 31.01.2028 -
George Wickens Lincoln City Abgelehnt 119 / 124 67% 2 16.01.2028 Ablehnen
Timur Magomedov Dinamo Makhachkala Aktiv 125 / 107 40% 1 16.01.2028 -
Facundo Vila Estudiantes Aktiv 97 / 109 40% 1 13.01.2028 -
Agustín Módica Gimnasia y Esgrima Aktiv 127 / 127 40% 3 31.12.2027 -
Roberto Ramírez Godoy Cruz Aktiv 112 / 124 40% 2 31.12.2027 -
Iván Arboleda Sarmiento Aktiv 136 / 119 40% 2 31.12.2027 -
Cristopher Varela Deportivo La Guaira Aktiv 108 / 128 40% 3 30.12.2027 -
Luis Ingolotti Atlético Tucumán Aktiv 110 / 136 40% 2 30.12.2027 -
Nahuel Galardi Maipú Aktiv 114 / 124 40% 3 29.12.2027 -
Egil Selvik Watford Aktiv 117 / 132 40% 1 29.12.2027 -
Daniil Frolkin Fakel Aktiv 102 / 110 40% 1 27.12.2027 -
Agustín Lastra Estudiantes Aktiv 103 / 123 40% 1 25.12.2027 -
Vadim Uljanov Akhmat Grozny Aktiv 116 / 118 40% 1 24.12.2027 Mehr Infos nötig
Balázs Tóth Blackburn Rovers Aktiv 131 / 122 40% 1 22.12.2027 -
Joe Whitworth Stockport County Aktiv 135 / 128 40% 1 22.12.2027 -
Joaquín Enrico San Telmo Aktiv 102 / 113 40% 1 21.12.2027 -
Nahuel Suárez La Luz Aktiv 130 / 120 40% 1 19.12.2027 -
Darko Todorović Fakel Aktiv 111 / 111 40% 4 17.12.2027 Beobachten
Martín Garay Tigre Aktiv 113 / 126 40% 1 17.12.2027 Mehr Infos nötig
Yury Gorshkov Krylya Sovetov Aktiv 115 / 122 40% 1 16.12.2027 -
Fernando Costanza Krylya Sovetov Aktiv 131 / 117 40% 1 16.12.2027 -
Facundo Castet Colón Verloren 119 / 114 40% 2 15.12.2027 -
Anderson Arroyo Rubin Aktiv 112 / 115 40% 2 15.12.2027 -
Emmanuel Gómez Riga Alvarado Aktiv 101 / 130 40% 1 15.12.2027 -
Johan Campaña Patriotas Aktiv 94 / 118 40% 1 15.12.2027 -
François Kamano Sochi Verloren 119 / 114 40% 7 14.12.2027 -
Facundo Altamira Godoy Cruz Verloren 126 / 112 40% 1 14.12.2027 -
Nicolás Heiz Maipú Aktiv 95 / 108 40% 2 12.12.2027 -
Gianluca Pugliese Güemes Aktiv 106 / 114 40% 2 12.12.2027 -
Arsen Adamov Akhmat Grozny Aktiv 127 / 127 40% 3 11.12.2027 -
Thiago López Almagro Aktiv 98 / 104 40% 1 11.12.2027 -
Ángelo Lucena Carabobo Aktiv 105 / 113 40% 1 09.12.2027 -
Giorgi Arabidze Torpedo Kutaisi Aktiv 136 / 122 40% 1 09.12.2027 -
Daniil Kuznetsov Rubin Aktiv 97 / 108 40% 1 08.12.2027 -
Ramiro Balbuena Nueva Chicago Aktiv 104 / 95 40% 2 07.12.2027 -
Gastón Moreyra Almirante Brown Aktiv 104 / 101 40% 4 07.12.2027 -
Kevin Méndez Dinamo Tbilisi Aktiv 92 / 98 40% 2 06.12.2027 -
Giorgi Beridze Dinamo Tbilisi Aktiv 120 / 114 40% 4 05.12.2027 -
Francisco Salerno Defensores Unidos Aktiv 92 / 115 40% 1 05.12.2027 -
Vyacheslav Grulev Nizhniy Novgorod Aktiv 110 / 112 40% 5 04.12.2027 -
Adalberto Peñaranda Deportivo Tachira Aktiv 121 / 116 40% 6 04.12.2027 -
Sharani Zuberu DAC Dunajska Streda Aktiv 126 / 118 40% 1 04.12.2027 -
Brayan Alcócer Rubin Aktiv 103 / 108 40% 1 04.12.2027 -
Brian Mansilla Akhmat Grozny Aktiv 128 / 124 40% 5 02.12.2027 -
Tomás Fernández Aldosivi Aktiv 122 / 118 40% 2 30.11.2027 -
Matías Viguet Maipú Aktiv 98 / 105 40% 1 30.11.2027 -
Nicolás Sumavil Platense Aktiv 129 / 128 40% 1 29.11.2027 -
Sebastián Cocimano Nueva Chicago Aktiv 106 / 119 40% 3 28.11.2027 -
Agustín Gallo Tristán Suárez Aktiv 129 / 122 40% 2 28.11.2027 -
Iván Tapia Barracas Central Aktiv 102 / 121 40% 1 28.11.2027 -
Gonzalo Mottes Chacarita Juniors Aktiv 126 / 105 40% 1 28.11.2027 -
Jhonatan Candia Barracas Central Aktiv 114 / 123 40% 1 28.11.2027 -
Enzo Trinidad Colegiales Aktiv 123 / 125 40% 1 26.11.2027 -
Lautaro Núñez Alvarado Aktiv 97 / 97 40% 1 26.11.2027 -
Facundo Heredia Patronato Aktiv 111 / 98 40% 2 24.11.2027 -
Lucas Bruera Carabobo Aktiv 125 / 136 40% 1 23.11.2027 -
Martin Sekulić Ural Aktiv 122 / 112 40% 6 22.11.2027 -
Murphy Cooper Plymouth Argyle Aktiv 136 / 119 40% 1 22.11.2027 -
Luca Martínez Dupuy Godoy Cruz Aktiv 137 / 114 40% 3 21.11.2027 -
Kerfala Cissoko Rodina Aktiv 99 / 107 40% 1 21.11.2027 -
Bogdan Ovsyannikov Orenburg Aktiv 112 / 109 40% 1 21.11.2027 -
Jonathan Cañete Portuguesa Aktiv 105 / 118 40% 3 20.11.2027 -
Eric Ramírez Llaneros Aktiv 99 / 111 40% 1 20.11.2027 -
Juan Infante Atlético Tucumán Verloren 132 / 117 40% 1 20.11.2027 -
Matías Machado Racing Aktiv 124 / 110 40% 1 20.11.2027 -
Vladislav Sarveli Nizhniy Novgorod Aktiv 107 / 107 40% 9 19.11.2027 -
Facundo Krüger FK Senica Aktiv 110 / 121 40% 1 19.11.2027 -
Tobías Leiva Estudiantes Aktiv 118 / 105 40% 1 19.11.2027 -
Fernando Martínez Central Córdoba SdE Aktiv 112 / 123 40% 1 19.11.2027 -
Juan Rocca Gimnasia y Tiro Aktiv 123 / 104 40% 4 18.11.2027 -
Vicente Poggi Godoy Cruz Aktiv 138 / 112 40% 1 18.11.2027 -
Georgy Melkadze Akhmat Grozny Aktiv 109 / 109 40% 7 17.11.2027 -
Junior Paredes Trujillanos Aktiv 93 / 108 40% 1 17.11.2027 -
Misael Sosa Godoy Cruz Aktiv 98 / 129 40% 1 15.11.2027 -
Tenton Yenne Baltika Aktiv 111 / 112 40% 5 14.11.2027 -
Ramón González Almirante Brown Aktiv 104 / 114 40% 1 14.11.2027 -
Lautaro Disanto Defensores Unidos Aktiv 103 / 100 40% 1 14.11.2027 -
Juan Pablo Barinaga Patronato Aktiv 114 / 115 40% 2 13.11.2027 -
Rodrigo Bogarín Barracas Central Aktiv 103 / 130 40% 1 11.11.2027 -
Erickson Gallardo Zamora Aktiv 118 / 98 40% 2 10.11.2027 -
Alexandr Lomovitskiy Torpedo-BelAZ Aktiv 103 / 111 40% 3 08.11.2027 -
Ariel Schuartzman Torpedo Kutaisi Aktiv 109 / 107 40% 2 08.11.2027 -
Alan Bonansea Colón Aktiv 116 / 115 40% 3 08.11.2027 -
Genaro Rossi San Martín SJ Aktiv 108 / 111 40% 1 08.11.2027 -
Facundo Ardiles Estudiantes Aktiv 119 / 116 40% 1 04.11.2027 -
Brian Calderara Chacarita Juniors Aktiv 127 / 112 40% 1 04.11.2027 -
Enzo Martínez Almagro Aktiv 114 / 109 40% 2 31.10.2027 -
Luca Franco Arsenal Aktiv 90 / 98 40% 2 30.10.2027 -
Lucas Carrizo Plaza Colonia Aktiv 117 / 106 40% 2 28.10.2027 -
Jonás Acevedo Instituto Aktiv 117 / 114 40% 2 27.10.2027 -
Gamid Agalarov Dinamo Makhachkala Aktiv 121 / 105 40% 3 26.10.2027 -
Santiago Sala Güemes Aktiv 94 / 112 40% 4 24.10.2027 -
Richard Figueroa Deportivo Lara Aktiv 93 / 98 40% 3 22.10.2027 -
Marco Miori Alvarado Aktiv 131 / 120 40% 1 21.10.2027 -
Rauno Sappinen Flora Aktiv 110 / 110 40% 1 20.10.2027 -
Juan Sebastián Herrera Deportivo La Guaira Aktiv 98 / 106 40% 4 19.10.2027 -
Gonzalo Asis Almagro Aktiv 128 / 118 40% 2 19.10.2027 -
Augusto Berrondo Tristán Suárez Aktiv 129 / 120 40% 2 19.10.2027 -
Santiago Apa All Boys Aktiv 98 / 103 40% 1 19.10.2027 -
Alejo Dramisino Atlanta Aktiv 107 / 112 40% 1 18.10.2027 -
Tomás Ferreyra Defensores Unidos Aktiv 107 / 110 40% 2 16.10.2027 -
Nicolás Cordero Aldosivi Aktiv 111 / 111 40% 1 11.10.2027 -
Radivoj Bosić Vitebsk Aktiv 101 / 105 40% 1 10.10.2027 -
Federico Bisanz Atlanta Aktiv 122 / 107 40% 1 10.10.2027 -
Yegor Kortsov Dinamo Brest Aktiv 112 / 109 40% 1 07.10.2027 -
Javier Martínez Almirante Brown Aktiv 91 / 97 40% 1 07.10.2027 -
Irakli Kvilitaia Tskhinvali Aktiv 127 / 100 40% 1 05.10.2027 -
Renzo Reynaga Patronato Aktiv 122 / 120 40% 1 04.10.2027 -
Iñaki Larthirigoyen San Telmo Aktiv 122 / 112 40% 1 17.09.2027 -
Brahian Cuello Unión de Santa Fe Aktiv 106 / 106 40% 1 17.09.2027 -
Julián Cosi Madryn Aktiv 123 / 104 40% 1 14.09.2027 -
Luis Olivera Defensores Unidos Aktiv 98 / 115 40% 1 08.09.2027 -
Jesús Vargas Metropolitanos Aktiv 122 / 109 40% 1 07.09.2027 -
Sebastián Jaurena San Martín SJ Aktiv 109 / 117 40% 1 07.09.2027 -
Richard Celis Zamora Aktiv 116 / 116 40% 1 06.09.2027 -
Gustavo Viera Cerro Largo Aktiv 118 / 103 40% 1 02.09.2027 -
Brian Orosco Godoy Cruz Aktiv 133 / 108 40% 1 02.09.2027 -
Duvan Rangel La Equidad Aktiv 122 / 124 40% 1 25.08.2027 -
Diogo Guzmán Montevideo City Torque Aktiv 120 / 111 40% 1 18.08.2027 -
Luca Vignali Virtus Entella Aktiv 131 / 121 40% 1 10.08.2027 -
Kane Wilson Milton Keynes Dons Aktiv 111 / 120 40% 1 09.08.2027 -
Caylan Vickers Burton Albion Aktiv 117 / 108 40% 1 09.08.2027 -
Kyle John Port Vale Aktiv 117 / 118 40% 2 07.08.2027 -
Sam Mather Bromley Aktiv 110 / 115 40% 1 07.08.2027 -
Malik Mothersille Stockport County Aktiv 107 / 122 40% 1 06.08.2027 -
Kelly Saravanan Salford City Aktiv 112 / 111 40% 1 06.08.2027 -
Jack Senior Crawley Town Aktiv 100 / 89 40% 1 04.08.2027 -
Connor Ogilvie Bristol Rovers Aktiv 110 / 108 40% 1 30.07.2027 -
Darragh Burns Grimsby Town Aktiv 96 / 95 40% 1 28.07.2027 -
Josh Dacres-Cogley Stockport County Aktiv 124 / 120 40% 1 28.07.2027 -
George Byers Port Vale Aktiv 131 / 127 40% 1 27.07.2027 -
Velemseni Ndwandwe Golden Arrows Aktiv 93 / 112 40% 1 26.07.2027 -
Ben Garrity Port Vale Aktiv 116 / 106 40% 1 25.07.2027 -
Mattia Vitale Salernitana Aktiv 132 / 118 40% 1 19.07.2027 -
Kees de Boer Salernitana Aktiv 107 / 105 40% 1 18.07.2027 -
Jacopo Desogus AlbinoLeffe Aktiv 124 / 119 40% 1 17.07.2027 -
Simone Potop AlbinoLeffe Aktiv 108 / 92 40% 1 17.07.2027 -
Corrado Riviera Renate Aktiv 89 / 116 40% 1 16.07.2027 -
Giacomo Zecca Torres Aktiv 96 / 114 40% 1 15.07.2027 -
Martin Kramarič Krylya Sovetov Aktiv 106 / 119 40% 1 13.07.2027 -
Alexandr Ektov Nizhniy Novgorod Aktiv 107 / 110 40% 1 13.07.2027 -
Fortune Bassey Djoliba Aktiv 106 / 93 40% 1 23.06.2027 -
Amine Benchaib Kauno Zalgiris Aktiv 93 / 109 44% 1 03.06.2027 -
Shota Shekiladze Akhmat Grozny Aktiv 110 / 110 66% 1 01.06.2027 Befürworten
Mattia Iori Lumezzane Aktiv 111 / 99 40% 1 31.05.2027 -
Francesco Petito Dolomiti Bellunesi Aktiv 81 / 92 40% 1 29.05.2027 -
Brayan León Mamelodi Sundowns Aktiv 136 / 103 40% 4 25.05.2027 -
Chinedu Geoffrey Krylya Sovetov Aktiv 119 / 114 40% 2 25.05.2027 -
Mikhail Ignatov Sochi Aktiv 117 / 112 40% 5 22.05.2027 -
Simone Mazzocchi Cosenza Aktiv 125 / 114 40% 1 22.05.2027 -
Hany Mukhtar Spezia Aktiv 143 / 123 40% 1 22.05.2027 -
John Yeboah Venezia Aktiv 99 / 130 40% 1 22.05.2027 -
Ettore Gliozzi Mantova Aktiv 113 / 130 40% 1 19.05.2027 -
Artem Maximenko Nizhniy Novgorod Aktiv 121 / 109 40% 5 18.05.2027 -
Mattia Bortolussi Padova Aktiv 131 / 125 40% 1 17.05.2027 -
Ruslan Apekov Torpedo Moscow Aktiv 114 / 107 40% 3 16.05.2027 -
Marco Tumminello Benevento Aktiv 119 / 105 40% 1 16.05.2027 -
Vladimir Khubulov Dinamo Makhachkala Aktiv 105 / 103 40% 4 15.05.2027 -
Amur Kalmykov Spartak Kostroma Aktiv 121 / 99 40% 2 15.05.2027 -
Dmitry Tsypchenko Torpedo Moscow Aktiv 96 / 98 40% 6 13.05.2027 -
Emanuele Schimmenti Potenza Aktiv 125 / 110 40% 1 13.05.2027 -
Maksim Samorodov Akhmat Grozny Aktiv 133 / 122 40% 6 11.05.2027 -
Mandla Mahlangu Ajax Cape Town Aktiv 88 / 100 40% 5 11.05.2027 -
Evidence Makgopa Orlando Pirates Aktiv 137 / 102 40% 5 11.05.2027 -
Slobodan Tedić Akron Aktiv 104 / 108 40% 6 09.05.2027 -
Etiosa Ighodaro Kaizer Chiefs Aktiv 91 / 115 40% 4 06.05.2027 -
Migran Ageyan Ufa Aktiv 107 / 97 40% 2 03.05.2027 -
David Davidyan Rotor Aktiv 87 / 107 40% 1 01.05.2027 -
Andrey Okladnikov Yenisey Aktiv 90 / 83 40% 1 27.04.2027 -
Ekain Orobengoa Real Sociedad Aktiv 87 / 114 40% 1 25.04.2027 -
Lewis Morgan SuperSport United Aktiv 136 / 134 40% 4 22.04.2027 -
Malick Traoré Onze Createurs Aktiv 100 / 100 40% 2 19.04.2027 -
Kamran Aliev SKA Khabarovsk Aktiv 109 / 106 40% 2 16.04.2027 -
Vladislav Yakovlev Volga Aktiv 97 / 93 40% 2 15.04.2027 -
Amar Rahmanović Krylya Sovetov Aktiv 106 / 106 40% 2 14.04.2027 -
Surkhaikhan Abdullaev KAMAZ Aktiv 86 / 99 40% 1 14.04.2027 -
Dmitry Kamenschikov Arsenal Tula Aktiv 101 / 95 40% 4 08.04.2027 -
Danil Karpov KAMAZ Aktiv 97 / 89 40% 3 06.04.2027 -
Alexandr Khokhlachev Rotor Aktiv 108 / 94 40% 2 02.04.2027 -
Rashid Magomedov Neftekhimik Aktiv 107 / 95 40% 1 02.04.2027 -
Jacobo Alcalde SKA Khabarovsk Aktiv 96 / 97 40% 2 28.03.2027 -
Bertrand Fourrier Ural Aktiv 113 / 101 40% 2 28.03.2027 -
Aaron Drinan Swindon Town Aktiv 122 / 101 40% 1 25.03.2027 -
Ali Youssef Apollon Aktiv 134 / 113 40% 1 24.03.2027 -
Juan Cejas Ethnikos Achnas Aktiv 112 / 106 40% 1 24.03.2027 -
Jerome Karelse Golden Arrows Aktiv 81 / 94 40% 1 23.03.2027 -
Nikita Simdyankin KDV Tomsk Aktiv 91 / 78 40% 1 21.03.2027 -
Daniil Agureev Amkar Aktiv 81 / 80 40% 1 15.03.2027 -
Kirill Bogdanets Volna Aktiv 91 / 94 40% 1 07.03.2027 -
Alexandr Dolgov Amkar Aktiv 94 / 92 40% 2 06.03.2027 -
Pedro Marques Apollon Aktiv 105 / 116 40% 2 02.03.2027 -
Alexandr Saplinov Volga Aktiv 92 / 99 40% 2 28.02.2027 -
Daniil Kondrakov KDV Tomsk Aktiv 79 / 84 40% 1 20.02.2027 -
Said Aliev Rotor Aktiv 88 / 89 40% 1 14.02.2027 -
Leon Sabua Fakel Aktiv 108 / 94 40% 1 10.02.2027 -
Chinonso Offor Baltika Aktiv 96 / 105 40% 1 08.02.2027 -
Aleksej Golijanin Sokol Aktiv 101 / 95 40% 1 07.02.2027 -
Alexandr Yushin Torpedo Moscow Aktiv 100 / 107 40% 1 05.02.2027 -
Temirkan Sundukov Dinamo Makhachkala Aktiv 104 / 112 40% 1 28.01.2027 -
Ilja Agapov Ufa Aktiv 107 / 118 40% 1 28.01.2027 -
Eddy Ozobic Inter Aktiv 122 / 120 40% 1 25.01.2027 -
Tomas Švedkauskas Kauno Zalgiris Aktiv 84 / 97 41% 1 18.01.2027 -
Anton Tolordava Kauno Zalgiris Aktiv 94 / 102 41% 1 05.01.2027 -
Stefan Kovač Baltika Aktiv 117 / 117 40% 2 02.01.2027 -
Stefan Lončar Akron Aktiv 101 / 116 40% 2 28.12.2026 -
Ivan Komarov Rostov Aktiv 122 / 107 40% 2 27.12.2026 -
Léo Cordeiro Ural Verloren 107 / 116 40% 2 25.12.2026 -
Robert Mejía Orenburg Aktiv 123 / 118 40% 1 25.12.2026 -
Bojan Roganović Torpedo Moscow Aktiv 95 / 96 40% 1 24.12.2026 -
Artem Simonyan Rotor Aktiv 92 / 103 40% 1 17.12.2026 -
Houssem Mrezigue Dinamo Makhachkala Aktiv 126 / 120 40% 2 16.12.2026 -
Artem Makarchuk Sochi Verloren 115 / 111 40% 2 15.12.2026 -
Maxime Sivis Orenburg Aktiv 119 / 119 40% 1 15.12.2026 -
Vyacheslav Yakimov Fakel Aktiv 114 / 103 40% 2 13.12.2026 -
Mario Ćurić Torpedo Moscow Aktiv 102 / 102 40% 1 13.12.2026 -
Đorđe Pantelić Spartak Kostroma Aktiv 93 / 101 40% 2 12.12.2026 -
Roman Yezhov Sochi Aktiv 100 / 101 40% 2 12.12.2026 -
Guljigit Alykulov Dinamo Minsk Aktiv 99 / 113 40% 1 11.12.2026 -
Ilja Vakhania Krasnodar Aktiv 108 / 112 40% 1 11.12.2026 -
Miroslav Bogosavac Akhmat Grozny Verloren 133 / 113 40% 1 10.12.2026 -
Andrea Chukanov Yenisey Aktiv 89 / 106 40% 1 07.12.2026 -
Eldar Ćivić Baltika Aktiv 132 / 124 40% 2 02.12.2026 -
Nikolay Giorgobiani Fakel Aktiv 124 / 106 40% 1 30.11.2026 -
Lechi Sadulaev Akhmat Grozny Aktiv 118 / 123 40% 1 21.11.2026 -
Igor Dmitriev Spartak Moscow Aktiv 123 / 127 40% 1 20.11.2026 -
Kevin Pina Krasnodar Aktiv 122 / 120 40% 1 17.11.2026 -
Valdas Paulauskas Kauno Zalgiris Aktiv 85 / 95 41% 1 24.08.2026 -
Lukas Simkus Stumbras Aktiv 98 / 110 41% 1 17.08.2026 -